IK3ZGB Weather Reports


Display with metric or nautical units.
time (UTC)temp
F
wind
direction
speed
MPH
gust
MPH
rain 1hr
in
rain 24hr
in
rain mn
in
humidity
%
barometer
mb
20260509204844 67 0.0 0.0 0.00 0.00 0.00 69 1016.5
20260509203845 68 0.0 0.0 0.00 0.00 0.00 69 1016.2
20260509202844 68 0.0 0.0 0.00 0.00 0.00 69 1016.4
20260509201845 68 0.0 0.0 0.00 0.00 0.00 68 1016.0
20260509200845 68 0.0 0.0 0.00 0.00 0.00 68 1016.0
20260509195844 68 0.0 0.0 0.00 0.00 0.00 68 1016.0
20260509194845 68 0.0 0.0 0.00 0.00 0.00 68 1015.9
20260509193845 69 0.0 0.0 0.00 0.00 0.00 67 1015.7
20260509192846 69 0.0 0.0 0.00 0.00 0.00 67 1015.9
20260509191845 69 0.0 0.0 0.00 0.00 0.00 68 1015.3
20260509190845 69 0.0 0.0 0.00 0.00 0.00 67 1015.2
20260509185844 69 0.0 0.0 0.00 0.00 0.00 68 1014.9
20260509184845 70 0.0 0.0 0.00 0.00 0.00 67 1015.1
20260509183845 71 0.0 0.0 0.00 0.00 0.00 66 1014.6
20260509182845 71 0.0 0.0 0.00 0.00 0.00 65 1014.6
20260509181846 72 0.0 0.0 0.00 0.00 0.00 64 1014.3
20260509180845 73 0.0 0.0 0.00 0.00 0.00 61 1014.6
20260509175844 74 0.0 0.0 0.00 0.00 0.00 59 1014.4
20260509174845 74 0.0 0.0 0.00 0.00 0.00 58 1014.2
20260509173845 74 0.0 0.0 0.00 0.00 0.00 58 1014.4
20260509172846 75 0.0 0.0 0.00 0.00 0.00 57 1014.4
20260509171845 75 0.0 0.0 0.00 0.00 0.00 57 1014.3
20260509170845 75 0.0 0.0 0.00 0.00 0.00 57 1014.4
20260509165845 76 0.0 0.0 0.00 0.00 0.00 56 1014.3
20260509164844 76 0.0 0.0 0.00 0.00 0.00 56 1014.3
20260509163845 76 0.0 0.0 0.00 0.00 0.00 56 1014.3
20260509162844 76 0.0 0.0 0.00 0.00 0.00 56 1014.3
20260509161844 76 0.0 0.0 0.00 0.00 0.00 56 1014.3
20260509160846 77 0.0 0.0 0.00 0.00 0.00 56 1014.5
20260509155845 77 0.0 0.0 0.00 0.00 0.00 55 1014.5
20260509154845 77 0.0 0.0 0.00 0.00 0.00 56 1014.2
20260509153845 77 0.0 0.0 0.00 0.00 0.00 55 1014.4
20260509152845 77 0.0 0.0 0.00 0.00 0.00 55 1014.2
20260509151844 77 0.0 0.0 0.00 0.00 0.00 55 1014.3
20260509150845 77 0.0 0.0 0.00 0.00 0.00 55 1014.4
20260509145845 78 0.0 0.0 0.00 0.00 0.00 56 1014.6
20260509144845 77 0.0 0.0 0.00 0.00 0.00 55 1014.5
20260509143845 78 0.0 0.0 0.00 0.00 0.00 55 1014.8
20260509142845 78 0.0 0.0 0.00 0.00 0.00 55 1014.8
20260509141844 78 0.0 0.0 0.00 0.00 0.00 56 1014.9
20260509140845 78 0.0 0.0 0.00 0.00 0.00 54 1015.0
20260509135845 78 0.0 0.0 0.00 0.00 0.00 55 1015.1
20260509134844 78 0.0 0.0 0.00 0.00 0.00 55 1015.2
20260509133845 78 0.0 0.0 0.00 0.00 0.00 54 1015.2
20260509132844 77 0.0 0.0 0.00 0.00 0.00 55 1015.2
20260509131845 77 0.0 0.0 0.00 0.00 0.00 54 1015.6
20260509130844 78 0.0 0.0 0.00 0.00 0.00 56 1015.4
20260509125845 77 0.0 0.0 0.00 0.00 0.00 56 1015.3
20260509124845 77 0.0 0.0 0.00 0.00 0.00 56 1015.5
20260509123845 77 0.0 0.0 0.00 0.00 0.00 58 1015.3
20260509122844 76 0.0 0.0 0.00 0.00 0.00 56 1015.3
20260509121845 77 0.0 0.0 0.00 0.00 0.00 57 1015.6
20260509120844 75 0.0 0.0 0.00 0.00 0.00 57 1015.5
20260509115845 77 0.0 0.0 0.00 0.00 0.00 59 1015.7
20260509114844 77 0.0 0.0 0.00 0.00 0.00 59 1015.8
20260509113844 76 0.0 0.0 0.00 0.00 0.00 56 1016.0
20260509112845 77 0.0 0.0 0.00 0.00 0.00 58 1016.2
20260509111845 77 0.0 0.0 0.00 0.00 0.00 58 1016.1
20260509110844 77 0.0 0.0 0.00 0.00 0.00 59 1016.4
20260509105844 76 0.0 0.0 0.00 0.00 0.00 59 1016.5
20260509104844 78 0.0 0.0 0.00 0.00 0.00 60 1016.6
20260509103845 78 0.0 0.0 0.00 0.00 0.00 60 1016.6
20260509102844 78 0.0 0.0 0.00 0.00 0.00 60 1016.8
20260509101844 78 0.0 0.0 0.00 0.00 0.00 60 1016.8
20260509100844 77 0.0 0.0 0.00 0.00 0.00 59 1017.2
20260509095844 78 0.0 0.0 0.00 0.00 0.00 60 1016.7
20260509094845 77 0.0 0.0 0.00 0.00 0.00 60 1016.8
20260509093845 77 0.0 0.0 0.00 0.00 0.00 57 1017.0
20260509092844 78 0.0 0.0 0.00 0.00 0.00 59 1017.3
20260509091844 77 0.0 0.0 0.00 0.00 0.00 59 1017.2
20260509090845 78 0.0 0.0 0.00 0.00 0.00 60 1017.5
20260509085846 77 0.0 0.0 0.00 0.00 0.00 60 1017.4
20260509084844 75 0.0 0.0 0.00 0.00 0.00 58 1017.5
20260509083844 78 0.0 0.0 0.00 0.00 0.00 58 1017.6
20260509082844 79 0.0 0.0 0.00 0.00 0.00 59 1017.6
20260509081845 78 0.0 0.0 0.00 0.00 0.00 59 1017.5
20260509080846 76 0.0 0.0 0.00 0.00 0.00 60 1017.5
20260509075844 77 0.0 0.0 0.00 0.00 0.00 60 1017.5
20260509074845 77 0.0 0.0 0.00 0.00 0.00 60 1017.8
20260509073845 76 0.0 0.0 0.00 0.00 0.00 61 1017.9
20260509072844 76 0.0 0.0 0.00 0.00 0.00 61 1018.0
20260509071845 76 0.0 0.0 0.00 0.00 0.00 61 1017.8
20260509070845 76 0.0 0.0 0.00 0.00 0.00 61 1017.7
20260509065845 76 0.0 0.0 0.00 0.00 0.00 61 1017.8
20260509064845 75 0.0 0.0 0.00 0.00 0.00 61 1017.6
20260509063844 75 0.0 0.0 0.00 0.00 0.00 61 1017.8
20260509062844 75 0.0 0.0 0.00 0.00 0.00 61 1017.9
20260509061845 74 0.0 0.0 0.00 0.00 0.00 62 1018.1
20260509060846 73 0.0 0.0 0.00 0.00 0.00 64 1017.9
20260509055845 72 0.0 0.0 0.00 0.00 0.00 63 1017.9
20260509054844 79 0.0 0.0 0.00 0.00 0.00 59 1017.9
20260509053845 76 0.0 0.0 0.00 0.00 0.00 61 1018.0
20260509052845 72 0.0 0.0 0.00 0.00 0.00 62 1018.3
20260509051844 68 0.0 0.0 0.00 0.00 0.00 66 1018.5
20260509050844 66 0.0 0.0 0.00 0.00 0.00 70 1018.8
20260509045844 64 0.0 0.0 0.00 0.00 0.00 72 1018.8
20260509044844 62 0.0 0.0 0.00 0.00 0.00 74 1018.7
20260509043844 60 0.0 0.0 0.00 0.00 0.00 76 1018.4
20260509042844 59 0.0 0.0 0.00 0.00 0.00 78 1018.2
20260509041844 57 0.0 0.0 0.00 0.00 0.00 79 1018.4
20260509040845 56 0.0 0.0 0.00 0.00 0.00 78 1018.3
20260509035845 56 0.0 0.0 0.00 0.00 0.00 78 1018.4
20260509034844 57 0.0 0.0 0.00 0.00 0.00 78 1018.2
20260509033845 58 0.0 0.0 0.00 0.00 0.00 78 1018.3
20260509032845 57 0.0 0.0 0.00 0.00 0.00 78 1018.1
20260509031845 58 0.0 0.0 0.00 0.00 0.00 78 1018.3
20260509030844 58 0.0 0.0 0.00 0.00 0.00 78 1018.3
20260509025844 58 0.0 0.0 0.00 0.00 0.00 78 1018.0
20260509024845 58 0.0 0.0 0.00 0.00 0.00 77 1018.2
20260509023844 58 0.0 0.0 0.00 0.00 0.00 77 1018.3
20260509022845 59 0.0 0.0 0.00 0.00 0.00 77 1018.1
20260509021844 58 0.0 0.0 0.00 0.00 0.00 77 1018.1
20260509020844 58 0.0 0.0 0.00 0.00 0.00 77 1017.9
20260509015845 58 0.0 0.0 0.00 0.00 0.00 77 1018.1
20260509014845 58 0.0 0.0 0.00 0.00 0.00 77 1018.0
20260509013844 59 0.0 0.0 0.00 0.00 0.00 77 1017.7
20260509012845 59 0.0 0.0 0.00 0.00 0.00 77 1017.8
20260509011844 59 0.0 0.0 0.00 0.00 0.00 76 1017.7
20260509010845 60 0.0 0.0 0.00 0.00 0.00 77 1017.6
20260509005845 59 0.0 0.0 0.00 0.00 0.00 76 1017.8
20260509004846 60 0.0 0.0 0.00 0.00 0.00 76 1017.7
20260509003845 60 0.0 0.0 0.00 0.00 0.00 75 1017.6
20260509002844 60 0.0 0.0 0.00 0.00 0.00 74 1017.6
20260509001845 60 0.0 0.0 0.00 0.00 0.00 76 1017.6
20260509000844 60 0.0 0.0 0.00 0.00 0.00 76 1017.7
20260508235845 61 0.0 0.0 0.00 0.00 0.00 76 1017.5
20260508234845 60 0.0 0.0 0.00 0.00 0.00 76 1017.6
20260508233845 60 0.0 0.0 0.00 0.00 0.00 75 1017.8
20260508232845 61 0.0 0.0 0.00 0.00 0.00 75 1017.6
20260508231845 61 0.0 0.0 0.00 0.00 0.00 74 1017.6
20260508230846 61 0.0 0.0 0.00 0.00 0.00 74 1017.6
20260508225845 61 0.0 0.0 0.00 0.00 0.00 75 1017.5
20260508224844 62 0.0 0.0 0.00 0.00 0.00 75 1017.5
20260508223845 61 0.0 0.0 0.00 0.00 0.00 76 1017.8
20260508222844 62 0.0 0.0 0.00 0.00 0.00 75 1017.6
20260508221845 62 0.0 0.0 0.00 0.00 0.00 75 1017.5
20260508220845 62 0.0 0.0 0.00 0.00 0.00 74 1017.4
20260508215845 62 0.0 0.0 0.00 0.00 0.00 74 1017.5
20260508214844 63 0.0 0.0 0.00 0.00 0.00 74 1017.6
20260508213844 62 0.0 0.0 0.00 0.00 0.00 73 1017.5
20260508212844 63 0.0 0.0 0.00 0.00 0.00 73 1017.5
20260508211844 64 0.0 0.0 0.00 0.00 0.00 72 1017.3
20260508210844 64 0.0 0.0 0.00 0.00 0.00 73 1017.4
20260508205845 64 0.0 0.0 0.00 0.00 0.00 73 1017.4